FW8343 Weather Reports


time (UTC)temp
F
wind
direction
speed
knots
gust
knots
rain 1hr
in
rain 24hr
in
rain mn
in
humidity
%
barometer
mb
20260510204531 48 11 0.0 6.1 0.00 0.00 0.00 49 1021.3
20260510204018 49 19 1.7 9.6 0.00 0.00 0.00 48 1021.2
20260510203517 49 0 2.6 9.6 0.00 0.00 0.00 52 1021.3
20260510203032 49 325 1.7 7.0 0.00 0.00 0.00 52 1021.2
20260510202513 48 297 1.7 7.0 0.00 0.00 0.00 52 1021.2
20260510202017 48 301 2.6 13.0 0.00 0.00 0.00 51 1021.3
20260510201530 48 311 0.9 13.0 0.00 0.00 0.00 51 1021.2
20260510201014 48 338 1.7 8.7 0.00 0.00 0.00 54 1021.1
20260510200513 47 346 2.6 8.7 0.00 0.00 0.00 52 1021.2
20260510200034 48 299 1.7 8.7 0.00 0.00 0.00 52 1021.2
20260510195515 48 5 2.6 10.4 0.00 0.00 0.00 50 1021.2
20260510195012 48 84 0.9 10.4 0.00 0.00 0.00 52 1021.2
20260510194531 48 302 3.5 10.4 0.00 0.00 0.00 51 1021.1
20260510194008 49 302 2.6 8.7 0.00 0.00 0.00 48 1021.0
20260510193517 50 304 2.6 8.7 0.00 0.00 0.00 47 1021.0
20260510193031 49 250 2.6 8.7 0.00 0.00 0.00 51 1021.0
20260510192510 48 340 1.7 7.8 0.00 0.00 0.00 50 1021.1
20260510192016 49 332 1.7 7.8 0.00 0.00 0.00 51 1020.9
20260510191532 48 319 2.6 7.8 0.00 0.00 0.00 52 1021.0
20260510191012 48 284 1.7 7.8 0.00 0.00 0.00 51 1020.9
20260510190516 48 343 1.7 10.4 0.00 0.00 0.00 52 1020.9
20260510190036 48 309 3.5 10.4 0.00 0.00 0.00 51 1020.9
20260510185511 48 316 3.5 8.7 0.00 0.00 0.00 51 1020.8
20260510185014 49 325 1.7 9.6 0.00 0.00 0.00 51 1020.8
20260510184531 49 5 2.6 11.3 0.00 0.00 0.00 50 1020.8
20260510184016 47 32 3.5 11.3 0.00 0.00 0.00 54 1020.8
20260510183514 47 279 2.6 10.4 0.00 0.00 0.00 53 1020.8
20260510183031 47 252 3.5 10.4 0.00 0.00 0.00 51 1020.8
20260510182513 47 292 2.6 7.8 0.00 0.00 0.00 53 1020.7
20260510182016 47 299 1.7 7.8 0.00 0.00 0.00 52 1020.6
20260510181530 46 323 0.9 8.7 0.00 0.00 0.00 54 1020.5
20260510181014 46 319 2.6 9.6 0.00 0.00 0.00 51 1020.3
20260510180513 46 302 2.6 9.6 0.00 0.00 0.00 54 1020.5
20260510180030 47 325 2.6 9.6 0.00 0.00 0.00 53 1020.5
20260510175511 47 306 2.6 9.6 0.00 0.00 0.00 53 1020.3
20260510175016 47 340 4.3 9.6 0.00 0.00 0.00 49 1020.3
20260510174532 48 291 2.6 8.7 0.00 0.00 0.00 52 1020.2
20260510174011 48 329 1.7 8.7 0.00 0.00 0.00 55 1020.2
20260510173517 47 305 0.9 9.6 0.00 0.00 0.00 58 1020.2
20260510173035 47 303 0.9 9.6 0.00 0.00 0.00 56 1020.4
20260510172525 46 269 0.9 8.7 0.00 0.00 0.00 53 1020.3
20260510172015 46 289 2.6 8.7 0.00 0.00 0.00 54 1020.2
20260510171540 46 317 2.6 11.3 0.00 0.00 0.00 55 1020.2
20260510171014 46 329 3.5 11.3 0.00 0.00 0.00 53 1020.2
20260510170513 46 304 2.6 10.4 0.00 0.00 0.00 54 1020.2
20260510170032 46 360 2.6 10.4 0.00 0.00 0.00 57 1020.2
20260510165510 47 277 2.6 10.4 0.00 0.00 0.00 55 1020.1
20260510165011 47 34 1.7 10.4 0.00 0.00 0.00 57 1020.2
20260510164529 45 286 2.6 10.4 0.00 0.00 0.00 59 1020.2
20260510164011 46 355 1.7 5.2 0.00 0.00 0.00 56 1020.1
20260510163515 46 288 1.7 8.7 0.00 0.00 0.00 56 1019.9
20260510163032 45 307 2.6 8.7 0.00 0.00 0.00 57 1019.9
20260510162512 46 312 2.6 8.7 0.00 0.00 0.00 57 1019.9
20260510162011 46 288 2.6 5.2 0.00 0.00 0.00 55 1019.8
20260510161531 47 304 1.7 7.8 0.00 0.00 0.00 56 1019.6
20260510161011 46 302 2.6 7.8 0.00 0.00 0.00 56 1019.7
20260510160510 46 313 2.6 7.8 0.00 0.00 0.00 57 1019.6
20260510160032 45 296 1.7 7.8 0.00 0.00 0.00 59 1019.6
20260510155511 45 237 3.5 7.8 0.00 0.00 0.00 57 1019.5
20260510155012 45 261 1.7 7.8 0.00 0.00 0.00 57 1019.4
20260510154530 45 28 1.7 7.0 0.00 0.00 0.00 57 1019.4
20260510154011 45 257 1.7 7.0 0.00 0.00 0.00 57 1019.4
20260510153513 45 268 2.6 7.0 0.00 0.00 0.00 56 1019.3
20260510153040 46 279 1.7 7.0 0.00 0.00 0.00 57 1019.2
20260510152512 46 312 1.7 6.1 0.00 0.00 0.00 54 1019.1
20260510152014 46 304 1.7 8.7 0.00 0.00 0.00 60 1019.2
20260510151536 44 0 0.9 8.7 0.00 0.00 0.00 62 1019.2
20260510151013 44 345 1.7 8.7 0.00 0.00 0.00 59 1019.2
20260510150515 45 248 1.7 6.1 0.00 0.00 0.00 57 1019.0
20260510150031 45 256 2.6 6.1 0.00 0.00 0.00 57 1018.9
20260510145514 45 336 1.7 6.1 0.00 0.00 0.00 58 1018.8
20260510145012 45 304 2.6 6.1 0.00 0.00 0.00 59 1018.8
20260510144532 44 297 2.6 7.8 0.00 0.00 0.00 61 1018.9
20260510144012 44 259 2.6 8.7 0.00 0.00 0.00 56 1018.8
20260510143517 44 270 0.9 8.7 0.00 0.00 0.00 60 1018.8
20260510143030 44 321 2.6 8.7 0.00 0.00 0.00 57 1018.8
20260510142515 44 321 4.3 8.7 0.00 0.00 0.00 56 1018.7
20260510142017 44 355 2.6 8.7 0.00 0.00 0.00 57 1018.6
20260510141534 44 308 2.6 8.7 0.00 0.00 0.00 56 1018.6
20260510141009 44 307 2.6 9.6 0.00 0.00 0.00 57 1018.5
20260510140513 44 302 2.6 9.6 0.00 0.00 0.00 58 1018.5
20260510140029 44 0 1.7 7.0 0.00 0.00 0.00 58 1018.4
20260510135511 44 287 3.5 7.8 0.00 0.00 0.00 59 1018.5
20260510135015 44 317 1.7 7.8 0.00 0.00 0.00 61 1018.4
20260510134531 43 277 2.6 7.8 0.00 0.00 0.00 59 1018.3
20260510134010 43 355 1.7 7.0 0.00 0.00 0.00 60 1018.3
20260510133514 42 279 2.6 7.0 0.00 0.00 0.00 62 1018.3
20260510133030 42 355 0.9 5.2 0.00 0.00 0.00 68 1018.3
20260510132515 41 269 0.9 7.8 0.00 0.00 0.00 69 1018.3
20260510132017 41 243 1.7 7.8 0.00 0.00 0.00 71 1018.3
20260510131530 41 275 1.7 7.0 0.00 0.00 0.00 71 1018.3
20260510131013 41 279 1.7 7.0 0.00 0.00 0.00 73 1018.3
20260510130515 40 331 1.7 8.7 0.00 0.00 0.00 72 1018.4
20260510130044 40 306 2.6 8.7 0.00 0.00 0.00 73 1018.3
20260510125511 40 264 1.7 7.8 0.00 0.00 0.00 75 1018.2
20260510125017 39 298 1.7 7.8 0.00 0.00 0.00 75 1018.2
20260510124531 39 311 1.7 7.8 0.00 0.00 0.00 75 1018.0
20260510124009 39 0 0.9 7.0 0.00 0.00 0.00 76 1017.9
20260510123514 39 252 1.7 8.7 0.00 0.00 0.00 76 1017.9
20260510123030 39 317 2.6 8.7 0.00 0.00 0.00 75 1017.9
20260510122510 38 326 0.9 7.0 0.00 0.00 0.00 76 1017.8
20260510122016 38 235 1.7 9.6 0.00 0.00 0.00 76 1017.8
20260510121535 38 294 1.7 9.6 0.00 0.00 0.00 76 1017.7
20260510121013 38 295 1.7 7.0 0.00 0.00 0.00 75 1017.7
20260510120514 38 309 2.6 7.0 0.00 0.00 0.00 76 1017.6
20260510120033 38 245 1.7 6.1 0.00 0.00 0.00 76 1017.6
20260510115510 37 267 1.7 4.3 0.00 0.00 0.00 76 1017.6
20260510115014 37 262 0.0 5.2 0.00 0.00 0.00 76 1017.4
20260510114532 37 259 0.9 5.2 0.00 0.00 0.00 77 1017.4
20260510114013 37 0 0.9 5.2 0.00 0.00 0.00 76 1017.3
20260510113512 36 284 0.9 6.1 0.00 0.00 0.00 77 1017.2
20260510113030 36 289 0.9 6.1 0.00 0.00 0.00 77 1017.1
20260510112511 36 260 0.9 4.3 0.00 0.00 0.00 77 1017.0
20260510112010 36 265 0.9 4.3 0.00 0.00 0.00 77 1016.9
20260510111530 35 264 0.9 3.5 0.00 0.00 0.00 77 1016.9
20260510111010 35 0 0.9 5.2 0.00 0.00 0.00 76 1016.8
20260510110514 35 0 0.0 5.2 0.00 0.00 0.00 76 1016.7
20260510110040 35 0 0.0 3.5 0.00 0.00 0.00 76 1016.8
20260510105510 35 278 0.9 5.2 0.00 0.00 0.00 76 1016.7
20260510105011 35 0 0.9 5.2 0.00 0.00 0.00 76 1016.7
20260510104530 35 331 0.0 3.5 0.00 0.00 0.00 75 1016.6
20260510104016 35 331 0.9 3.5 0.00 0.00 0.00 75 1016.6
20260510103513 35 331 0.9 3.5 0.00 0.00 0.00 75 1016.4
20260510103032 35 331 0.9 2.6 0.00 0.00 0.00 75 1016.3
20260510102513 35 331 0.0 2.6 0.00 0.00 0.00 74 1016.3
20260510102012 35 0 0.0 1.7 0.00 0.00 0.00 74 1016.1
20260510101534 35 331 0.0 2.6 0.00 0.00 0.00 74 1016.1
20260510101009 36 0 0.0 2.6 0.00 0.00 0.00 73 1016.0
20260510100515 36 0 0.0 1.7 0.00 0.00 0.00 73 1016.0
20260510100031 36 0 0.9 2.6 0.00 0.00 0.00 73 1015.9
20260510095516 35 331 0.0 2.6 0.00 0.00 0.00 73 1015.9
20260510095013 36 331 0.9 2.6 0.00 0.00 0.00 73 1015.9
20260510094531 36 331 0.0 1.7 0.00 0.00 0.00 72 1015.7
20260510094012 36 0 0.0 1.7 0.00 0.00 0.00 72 1015.8
20260510093511 36 0 0.0 2.6 0.00 0.00 0.00 71 1015.6
20260510093032 36 331 0.9 2.6 0.00 0.00 0.00 71 1015.7
20260510092511 36 331 0.9 2.6 0.00 0.00 0.00 70 1015.6
20260510092015 36 331 0.0 1.7 0.00 0.00 0.00 70 1015.6
20260510091536 37 0 0.0 1.7 0.00 0.00 0.00 70 1015.5
20260510091011 37 0 0.0 0.9 0.00 0.00 0.00 70 1015.5
20260510090514 37 0 0.0 1.7 0.00 0.00 0.00 70 1015.5
20260510090031 37 0 0.0 1.7 0.00 0.00 0.00 70 1015.4
20260510085511 37 331 0.0 0.9 0.00 0.00 0.00 69 1015.4
20260510085013 37 0 0.0 0.0 0.00 0.00 0.00 69 1015.4
20260510084535 37 0 0.0 0.0 0.00 0.00 0.00 69 1015.3
20260510084017 37 0 0.0 0.0 0.00 0.00 0.00 69 1015.3
20260510083512 37 0 0.0 0.0 0.00 0.00 0.00 68 1015.2
20260510083028 37 0 0.0 0.0 0.00 0.00 0.00 67 1015.1
20260510082512 37 0 0.0 0.0 0.00 0.00 0.00 67 1015.1
20260510082012 37 0 0.0 0.0 0.00 0.00 0.00 66 1015.0
20260510081534 38 0 0.0 0.9 0.00 0.00 0.00 66 1015.0
20260510081009 38 0 0.0 0.9 0.00 0.00 0.00 66 1014.9
20260510080512 38 0 0.0 0.0 0.00 0.00 0.00 65 1014.8
20260510080031 39 0 0.0 0.0 0.00 0.00 0.00 66 1014.8
20260510075513 39 0 0.0 0.9 0.00 0.00 0.00 66 1014.8
20260510075012 39 0 0.0 0.9 0.00 0.00 0.00 66 1014.8
20260510074530 39 0 0.0 0.9 0.00 0.00 0.00 65 1014.8
20260510074016 39 0 0.0 0.0 0.00 0.00 0.00 65 1014.7
20260510073516 39 0 0.0 1.7 0.00 0.00 0.00 65 1014.7
20260510073032 39 0 0.0 1.7 0.00 0.00 0.00 66 1014.7
20260510072510 39 331 0.0 1.7 0.00 0.00 0.00 65 1014.7
20260510072017 39 0 0.0 1.7 0.00 0.00 0.00 66 1014.8
20260510071531 39 331 0.0 1.7 0.00 0.00 0.00 66 1014.7
20260510071010 38 0 0.0 2.6 0.00 0.00 0.00 67 1014.6
20260510070512 38 0 0.0 2.6 0.00 0.00 0.00 68 1014.7
20260510070036 38 0 0.0 2.6 0.00 0.00 0.00 68 1014.6
20260510065511 38 0 0.0 0.9 0.00 0.00 0.00 69 1014.7
20260510065014 38 0 0.0 0.9 0.00 0.00 0.00 68 1014.6
20260510064535 38 0 0.0 0.0 0.00 0.00 0.00 68 1014.5
20260510064010 38 0 0.0 0.0 0.00 0.00 0.00 68 1014.5
20260510063516 37 0 0.0 0.0 0.00 0.00 0.00 68 1014.6
20260510063034 37 0 0.0 0.0 0.00 0.00 0.00 69 1014.6
20260510062511 37 0 0.0 0.0 0.00 0.00 0.00 69 1014.7
20260510062014 36 0 0.0 0.0 0.00 0.00 0.00 69 1014.6
20260510061533 36 0 0.0 0.0 0.00 0.00 0.00 69 1014.6
20260510061009 36 0 0.0 0.0 0.00 0.00 0.00 70 1014.5
20260510060516 36 0 0.0 0.0 0.00 0.00 0.00 73 1014.5
20260510060032 36 0 0.0 0.0 0.00 0.00 0.00 70 1014.5
20260510055510 36 0 0.0 0.0 0.00 0.00 0.00 69 1014.5
20260510055013 36 0 0.0 0.0 0.00 0.00 0.00 71 1014.5
20260510054532 36 0 0.0 0.0 0.00 0.00 0.00 72 1014.5
20260510054016 37 0 0.0 0.0 0.00 0.00 0.00 72 1014.4
20260510053511 37 0 0.0 0.0 0.00 0.00 0.00 67 1014.4
20260510053034 37 0 0.0 0.0 0.00 0.00 0.00 66 1014.4
20260510052511 37 0 0.0 0.0 0.00 0.00 0.00 66 1014.4
20260510052017 38 0 0.0 0.0 0.00 0.00 0.00 64 1014.3
20260510051530 38 0 0.0 0.0 0.00 0.00 0.00 64 1014.4
20260510051011 38 0 0.0 0.0 0.00 0.00 0.00 64 1014.3
20260510050510 38 0 0.0 0.0 0.00 0.00 0.00 64 1014.4
20260510050033 38 0 0.0 0.0 0.00 0.00 0.00 63 1014.4
20260510045519 38 0 0.0 0.0 0.00 0.00 0.00 64 1014.4
20260510045013 38 0 0.0 0.0 0.00 0.00 0.00 64 1014.4
20260510044547 38 0 0.0 0.0 0.00 0.00 0.00 64 1014.4
20260510044011 38 0 0.0 0.0 0.00 0.00 0.00 64 1014.4
20260510043513 38 0 0.0 0.0 0.00 0.00 0.00 64 1014.4
20260510043030 38 0 0.0 0.0 0.00 0.00 0.00 64 1014.3
20260510042513 38 0 0.0 0.0 0.00 0.00 0.00 65 1014.3
20260510042015 38 0 0.0 0.0 0.00 0.00 0.00 64 1014.3
20260510041529 39 0 0.0 0.0 0.00 0.00 0.00 63 1014.3
20260510041011 39 0 0.0 0.0 0.00 0.00 0.00 63 1014.3
20260510040509 39 0 0.0 0.0 0.00 0.00 0.00 63 1014.3
20260510040032 39 0 0.0 0.0 0.00 0.00 0.00 62 1014.2
20260510035510 40 0 0.0 0.0 0.00 0.00 0.00 60 1014.2
20260510035011 40 0 0.0 0.0 0.00 0.00 0.00 60 1014.2
20260510034532 40 0 0.0 0.0 0.00 0.00 0.00 61 1014.1
20260510034011 40 0 0.0 0.0 0.00 0.00 0.00 59 1014.0
20260510033515 41 0 0.0 0.0 0.00 0.00 0.00 58 1014.0
20260510033030 41 0 0.0 0.0 0.00 0.00 0.00 58 1013.9
20260510032510 41 0 0.0 0.0 0.00 0.00 0.00 59 1014.0
20260510032017 41 0 0.0 0.0 0.00 0.00 0.00 58 1013.9
20260510031530 42 0 0.0 0.0 0.00 0.00 0.00 57 1013.9
20260510031011 42 0 0.0 0.0 0.00 0.00 0.00 57 1013.9
20260510030513 42 0 0.0 0.0 0.00 0.00 0.00 57 1013.8
20260510030030 43 0 0.0 0.0 0.00 0.00 0.00 56 1013.8
20260510025511 43 0 0.0 0.0 0.00 0.00 0.00 54 1013.8
20260510025014 43 0 0.0 0.0 0.00 0.00 0.00 54 1013.7
20260510024532 43 0 0.0 0.9 0.00 0.00 0.00 55 1013.6
20260510024012 43 0 0.0 0.9 0.00 0.00 0.00 55 1013.6
20260510023517 44 0 0.0 0.9 0.00 0.00 0.00 55 1013.5
20260510023032 44 0 0.0 2.6 0.00 0.00 0.00 54 1013.4
20260510022515 44 0 0.0 2.6 0.00 0.00 0.00 55 1013.4
20260510022018 44 0 0.0 2.6 0.00 0.00 0.00 53 1013.4
20260510021532 44 0 0.0 3.5 0.00 0.00 0.00 53 1013.3
20260510021011 44 0 0.9 3.5 0.00 0.00 0.00 52 1013.2
20260510020515 44 0 0.0 1.7 0.00 0.00 0.00 51 1013.0
20260510020032 45 0 0.0 2.6 0.00 0.00 0.00 51 1012.9
20260510015515 45 313 0.0 3.5 0.00 0.00 0.00 51 1012.8
20260510015010 45 0 0.0 3.5 0.00 0.00 0.00 51 1012.8
20260510014529 45 0 0.9 4.3 0.00 0.00 0.00 49 1012.7
20260510014010 46 349 0.9 4.3 0.00 0.00 0.00 50 1012.6
20260510013512 46 0 0.0 7.8 0.00 0.00 0.00 49 1012.4
20260510013029 46 302 1.7 7.8 0.00 0.00 0.00 48 1012.3
20260510012511 46 5 0.9 4.3 0.00 0.00 0.00 48 1012.1
20260510012015 46 292 0.9 7.0 0.00 0.00 0.00 48 1011.9
20260510011528 47 307 0.9 7.0 0.00 0.00 0.00 47 1011.9
20260510011011 47 300 1.7 7.0 0.00 0.00 0.00 46 1011.8
20260510010510 48 0 1.7 7.0 0.00 0.00 0.00 46 1011.7
20260510010032 48 307 1.7 7.0 0.00 0.00 0.00 44 1011.6
20260510005512 48 317 1.7 5.2 0.00 0.00 0.00 44 1011.5
20260510005018 49 288 0.9 5.2 0.00 0.00 0.00 44 1011.3
20260510004532 49 325 0.9 7.8 0.00 0.00 0.00 43 1011.3
20260510004011 49 360 1.7 9.6 0.00 0.00 0.00 42 1011.2
20260510003515 50 312 0.9 9.6 0.00 0.00 0.00 43 1011.2
20260510003033 50 284 4.3 9.6 0.00 0.00 0.00 41 1011.2
20260510002510 50 321 1.7 9.6 0.00 0.00 0.00 41 1011.0
20260510002013 50 246 1.7 7.8 0.00 0.00 0.00 43 1010.9
20260510001531 50 325 2.6 7.8 0.00 0.00 0.00 41 1010.8
20260510001011 51 331 1.7 7.0 0.00 0.00 0.00 41 1010.7
20260510000514 51 279 0.9 7.0 0.00 0.00 0.00 42 1010.7
20260510000036 51 273 1.7 11.3 0.00 0.00 0.00 42 1010.5
20260509235509 51 0 1.7 11.3 0.00 0.00 0.00 43 1010.4
20260509235012 51 343 3.5 10.4 0.00 0.00 0.00 40 1010.3
20260509234539 52 302 2.6 10.4 0.00 0.00 0.00 42 1010.3
20260509234014 51 316 3.5 10.4 0.00 0.00 0.00 39 1010.4
20260509233511 51 326 1.7 7.0 0.00 0.00 0.00 40 1010.3
20260509233030 51 323 2.6 7.0 0.00 0.00 0.00 40 1010.3
20260509232511 51 327 1.7 7.8 0.00 0.00 0.00 40 1010.2
20260509232017 51 268 1.7 7.8 0.00 0.00 0.00 42 1010.2
20260509231533 51 0 0.9 4.3 0.00 0.00 0.00 45 1010.2
20260509231010 50 0 0.0 4.3 0.00 0.00 0.00 46 1010.2
20260509230515 50 332 0.9 4.3 0.00 0.00 0.00 43 1010.1
20260509230031 50 0 0.9 8.7 0.00 0.00 0.00 43 1010.0
20260509225512 50 267 2.6 8.7 0.00 0.00 0.00 44 1010.0
20260509225015 50 0 0.0 6.1 0.00 0.00 0.00 43 1009.9
20260509224544 50 0 0.9 5.2 0.00 0.00 0.00 45 1010.0
20260509224009 51 329 0.9 6.1 0.00 0.00 0.00 42 1009.9
20260509223515 51 334 1.7 8.7 0.00 0.00 0.00 41 1009.9
20260509223030 51 348 0.9 8.7 0.00 0.00 0.00 44 1009.8
20260509222509 51 327 3.5 9.6 0.00 0.00 0.00 40 1009.8
20260509222013 51 296 2.6 9.6 0.00 0.00 0.00 40 1009.7
20260509221531 51 315 2.6 9.6 0.00 0.00 0.00 41 1009.8
20260509221011 51 325 0.9 7.0 0.00 0.00 0.00 44 1009.7
20260509220515 51 329 2.6 9.6 0.00 0.00 0.00 40 1009.7
20260509220029 50 0 0.9 12.2 0.00 0.00 0.00 42 1009.7
20260509215512 50 5 2.6 12.2 0.00 0.00 0.00 41 1009.7
20260509215015 50 306 2.6 12.2 0.00 0.00 0.00 41 1009.7
20260509214535 51 313 3.5 9.6 0.00 0.00 0.00 40 1009.6
20260509214012 51 257 1.7 7.0 0.00 0.00 0.00 39 1009.6
20260509213512 51 323 0.9 7.8 0.00 0.00 0.00 41 1009.6
20260509213030 51 295 1.7 9.6 0.00 0.00 0.00 43 1009.5
20260509212511 51 32 1.7 10.4 0.00 0.00 0.00 41 1009.5
20260509212018 51 43 2.6 10.4 0.00 0.00 0.00 40 1009.4
20260509211529 51 5 1.7 7.0 0.00 0.00 0.00 44 1009.5
20260509211010 51 319 2.6 7.8 0.00 0.00 0.00 41 1009.4
20260509210514 51 309 3.5 7.8 0.00 0.00 0.00 42 1009.5
20260509210031 51 67 2.6 10.4 0.00 0.00 0.00 41 1009.3
20260509205510 51 290 4.3 12.2 0.00 0.00 0.00 41 1009.3
20260509205011 51 294 4.3 14.8 0.00 0.00 0.00 40 1009.3